Location: Kumla
(59.1265°N, 15.1401°E)
Time: 04:16:37
(UTC+01:00)

Vanguard 2 Rocket - Pass Details

Date: 11 December 2023
Orbit: 554 x 3310 km, 32.9° (Epoch: 20 February)

Event Time Altitude Azimuth Distance (km) Brightness Sun altitude
Rises 14:44:31 0° 236° (SW) 6,120 12.9 0.6°
Reaches altitude 10° 14:49:04 10° 226° (SW) 5,464 13.1 0.2°
Maximum altitude 15:02:18 28° 176° (S) 4,777 11.2 -0.9°
Drops below altitude 10° 15:17:16 10° 129° (SE) 6,204 11.1 -2.2°
Sets 15:22:55 0° 119° (ESE) 7,062 11.2 -2.8°
